"TOA5","AWS1","CR1000","7964","CR1000.Std.14","CPU:AWS1_114.CR1","64363","TBL110"
"TIMESTAMP","RECORD","Wind_spd_WVc(1)","Wind_spd_WVc(2)","Air_Temp_Avg","Humidity_Avg","SW_upper_Wm2_Avg","Rain_Tot","Press_Avg","Issui_Tot","Depth_cm","SR50A_Raw","Quality","Ground_Temp_Avg(1)","Ground_Temp_Avg(2)","SW_lower_Wm2_Avg","Albedo_Avg","SWC_per(1)","SWC_per(2)","Period(1)","Period(2)"
"TS","RN","","","","","","","","","","","","","","","","","","",""
"","","WVc","WVc","Avg","Avg","Avg","Tot","Avg","Tot","Smp","Smp","Smp","Avg","Avg","Avg","Avg","Smp","Smp","Smp","Smp"
"2017-05-22 00:00:00",289069,0.35,177.9,13.14,83.2,0,0,870.1868,0,-6.582,3.171,189,14.37,12.45,0,0,48,55.77,32.8,34.7
"2017-05-22 00:10:00",289070,0.471,180.1,13.03,83.6,0,0,870.0752,0,-5.383,3.16,191,14.32,12.45,0,0,47.95,55.77,32.78,34.7
"2017-05-22 00:20:00",289071,0.529,180.7,12.92,84.8,0,0,869.934,0,-4.896,3.155,186,14.33,12.45,0.007579082,0,47.95,55.83,32.78,34.71
"2017-05-22 00:30:00",289072,0.509,181.5,12.98,84.4,0,0,869.934,0,-5.51,3.161,190,14.25,12.45,0.08715944,0,47.95,55.77,32.78,34.7
"2017-05-22 00:40:00",289073,0.557,185.1,12.94,85.2,0,0,869.934,0,-5.919,3.165,194,14.27,12.45,0.02273725,0,47.95,55.77,32.78,34.7
"2017-05-22 00:50:00",289074,0.531,185.7,12.96,85.5,0,0,869.9193,0,-5.71,3.162,189,14.19,12.45,0.1629503,0,47.95,55.77,32.78,34.7
"2017-05-22 01:00:00",289075,0.424,184.7,13.23,82.9,0,0,869.8035,0,-5.198,3.157,192,14.17,12.45,0.3259005,0,47.95,55.77,32.78,34.7
"2017-05-22 01:10:00",289076,0.565,183.8,13,83.8,0,0,869.6813,0,-5.817,3.164,195,14.16,12.45,0.04926403,0,47.95,55.77,32.78,34.7
"2017-05-22 01:20:00",289077,0.495,186.1,13.02,83.9,0,0,869.5233,0,-4.632,3.151,190,14.11,12.45,0.1136862,0,48,55.72,32.8,34.68
"2017-05-22 01:30:00",289078,0.431,189,13.19,82.4,0,0,869.4812,0,-4.228,3.148,210,14.07,12.45,0.2690574,0,47.95,55.72,32.78,34.68
"2017-05-22 01:40:00",289079,0.403,195.1,13.03,83.6,0,0,869.5339,0,-4.887,3.153,191,14.04,12.45,0.1515816,0,48,55.77,32.8,34.7
"2017-05-22 01:50:00",289080,0.169,200.3,13.11,82.3,0,0,869.4412,0,-4.486,3.151,197,13.99,12.45,0.1174758,0,47.95,55.72,32.78,34.68
"2017-05-22 02:00:00",289081,0.303,195.8,12.94,83.5,0,0,869.4286,0,-3.848,3.145,201,14.01,12.45,0,0,47.95,55.77,32.78,34.7
"2017-05-22 02:10:00",289082,0.038,195.1,13.31,80.1,0,0,869.4286,0,-4.15,3.147,217,13.93,12.45,0.5684311,0,47.95,55.77,32.78,34.7
"2017-05-22 02:20:00",289083,0.415,195,12.81,83.5,0,0,869.4117,0,-4.34,3.151,196,13.91,12.45,0,0,47.95,55.72,32.78,34.68
"2017-05-22 02:30:00",289084,0.424,193.1,12.64,84.8,0,0,869.4033,0,-4.266,3.151,204,13.87,12.45,0,0,47.95,55.77,32.78,34.7
"2017-05-22 02:40:00",289085,0.485,190.8,12.6,85,0,0,869.357,0,-3.881,3.147,210,13.83,12.45,0,0,47.95,55.77,32.78,34.7
"2017-05-22 02:50:00",289086,0.405,189.6,12.56,85.4,0,0,869.1969,0,-4.115,3.15,212,13.84,12.45,0,0,47.95,55.72,32.78,34.68
"2017-05-22 03:00:00",289087,0.464,188.6,12.41,86.1,0,0,869.1758,0,-3.808,3.147,217,13.8,12.45,0.06063266,0,47.95,55.72,32.78,34.68
"2017-05-22 03:10:00",289088,0.424,188.7,12.45,85.5,0,0,869.1758,0,-4.83,3.157,194,13.77,12.45,0,0,47.95,55.72,32.78,34.68
"2017-05-22 03:20:00",289089,0.47,188.5,12.3,86.3,0,0,869.0621,0,-3.997,3.151,217,13.73,12.45,0,0,47.95,55.72,32.78,34.68
"2017-05-22 03:30:00",289090,0.239,188.9,12.21,87.7,0,0,868.9483,0,-4.348,3.153,204,13.65,12.45,0.08715944,0,47.95,55.72,32.78,34.68
"2017-05-22 03:40:00",289091,0.176,189.3,12.38,84.8,0,0,868.9357,0,-4.48,3.155,205,13.67,12.45,0.189477,0,47.95,55.72,32.78,34.68
"2017-05-22 03:50:00",289092,0.495,186.8,12.01,88.2,0,0,868.923,0,-4.078,3.153,205,13.61,12.45,0.07579082,0,47.95,55.72,32.78,34.68
"2017-05-22 04:00:00",289093,0.243,188.3,11.94,90.8,0,0,868.923,0,-4.843,3.16,196,13.58,12.45,0.05684311,0,47.95,55.72,32.78,34.68
"2017-05-22 04:10:00",289094,0.184,186.8,11.91,91.7,0,0,868.9167,0,-4.459,3.156,210,13.58,12.47,0.1061071,0,47.95,55.72,32.78,34.68
"2017-05-22 04:20:00",289095,0.212,186.7,11.97,92,0,0,868.923,0,-4.74,3.159,198,13.48,12.49,0.1667398,0,47.95,55.72,32.78,34.68
"2017-05-22 04:30:00",289096,0.052,183.6,11.95,93.5,0,0,868.9273,0,-4.54,3.158,212,13.5,12.52,0.181898,0,47.95,55.72,32.78,34.68
"2017-05-22 04:40:00",289097,0.24,197.7,11.7,98.3,0,0,868.9715,0,-4.177,3.153,224,13.5,12.49,0.5153776,0,47.95,55.72,32.78,34.68
"2017-05-22 04:50:00",289098,0.127,195.8,11.74,97.1,2.35817,0,869.0473,0,-4.537,3.157,212,13.44,12.46,1.068651,0.338,47.95,55.72,32.78,34.68
"2017-05-22 05:00:00",289099,0.232,187,11.77,97.5,10.0576,0,869.1484,0,-4.638,3.158,206,13.41,12.45,2.413938,0.241,47.95,55.72,32.78,34.68
"2017-05-22 05:10:00",289100,0.497,171.2,11.5,98.7,19.19943,0,868.9589,0,-4.932,3.164,193,13.38,12.44,3.54701,0.186,47.95,55.72,32.78,34.68
"2017-05-22 05:20:00",289101,0.385,164.5,11.9,95.8,31.45406,0,868.923,0,-4.794,3.16,205,13.32,12.43,5.760102,0.183,47.95,55.66,32.78,34.67
"2017-05-22 05:30:00",289102,0.315,182.5,12.5,89.5,42.31343,0,868.923,0,-6.201,3.168,189,13.32,12.43,7.60182,0.179,47.95,55.66,32.78,34.67
"2017-05-22 05:40:00",289103,0,0,12.58,88.1,51.6282,0,868.923,0,-5.44,3.162,187,13.32,12.43,8.283937,0.16,47.95,55.66,32.78,34.67
"2017-05-22 05:50:00",289104,0.006,141.4,12.69,88,70.85515,0,868.9694,0,-5.187,3.16,198,13.27,12.44,12.17958,0.172,47.95,55.66,32.78,34.67
"2017-05-22 06:00:00",289105,0,0,12.89,88.5,101.1223,0,869.1484,0,-4.965,3.154,189,13.2,12.44,16.71188,0.168,47.95,55.66,32.78,34.67
"2017-05-22 06:10:00",289106,0,0,13.56,83,116.3482,0,869.1758,0,-5.049,3.151,190,13.21,12.42,19.13718,0.166,47.95,55.66,32.78,34.67
"2017-05-22 06:20:00",289107,0.002,125.7,14.16,80.6,103.0049,0,869.1758,0,-4.911,3.148,196,13.23,12.4,21.08121,0.21,47.95,55.66,32.78,34.67
"2017-05-22 06:30:00",289108,0.035,125.6,14.27,80,95.14037,0,869.2306,0,-4.653,3.145,197,13.16,12.38,22.13092,0.234,47.95,55.66,32.78,34.67
"2017-05-22 06:40:00",289109,0.155,12.38,14.81,74.64,95.67882,0,869.3464,0,-5.199,3.147,189,13.08,12.36,23.25262,0.244,48,55.66,32.8,34.67
"2017-05-22 06:50:00",289110,0.36,2.261,15.04,70.84,143.8523,0,869.4222,0,-5.501,3.149,184,13.08,12.36,24.35159,0.176,48,55.66,32.8,34.67
"2017-05-22 07:00:00",289111,0.371,7.598,15.29,68.74,139.1831,0,869.4286,0,-5.726,3.15,184,13.11,12.36,26.12889,0.204,47.95,55.66,32.78,34.67
"2017-05-22 07:10:00",289112,0.59,359.1,15.48,68.64,116.3246,0,869.4286,0,-5.642,3.148,179,13.11,12.37,29.06578,0.254,47.95,55.66,32.78,34.67
"2017-05-22 07:20:00",289113,0.63,357.3,15.67,67.54,124.8219,0,869.4226,0,-5.431,3.145,185,13.11,12.37,30.98708,0.251,48,55.66,32.8,34.67
"2017-05-22 07:30:00",289114,0.674,0.043,15.82,67.12,132.0064,0,869.4078,0,-4.911,3.139,198,13.1,12.37,33.77618,0.259,47.95,55.66,32.78,34.67
"2017-05-22 07:40:00",289115,0.613,6.366,15.94,67.21,132.0395,0,869.3824,0,-5.492,3.144,186,13.07,12.33,38.4139,0.293,47.95,55.66,32.78,34.67
"2017-05-22 07:50:00",289116,0.606,14.11,16.19,66.96,396.1215,0,869.3715,0,-5.043,3.138,208,13.02,12.32,49.76558,0.143,47.95,55.6,32.78,34.65
"2017-05-22 08:00:00",289117,0.515,13.07,16.58,66.16,567.1954,0,869.4565,0,-4.452,3.13,198,13,12.3,77.21732,0.136,47.95,55.66,32.78,34.67
"2017-05-22 08:10:00",289118,0.673,354.6,16.93,64.9,601.6821,0,869.3919,0,-3.781,3.122,223,13.02,12.3,96.77264,0.161,48,55.6,32.8,34.65
"2017-05-22 08:20:00",289119,0.577,316,17.41,63.66,638.9385,0,869.3427,0,-3.971,3.12,249,12.96,12.26,107.4051,0.168,48,55.66,32.8,34.67
"2017-05-22 08:30:00",289120,0.364,340,18.14,61.19,646.4547,0,869.3361,0,-3.842,3.116,242,12.93,12.22,108.4643,0.168,47.95,55.6,32.78,34.65
"2017-05-22 08:40:00",289121,0.424,5.006,18.52,60.1,711.4988,0,869.254,0,-4.032,3.116,225,12.92,12.22,118.6074,0.167,47.95,55.6,32.78,34.65
"2017-05-22 08:50:00",289122,0.659,3.092,18.92,58.45,759.3177,0,869.0834,0,-5.36,3.127,204,12.9,12.17,124.3156,0.164,47.95,55.6,32.78,34.65
"2017-05-22 09:00:00",289123,0.34,12.86,19.07,57.13,791.8167,0,869.0203,0,-5.06,3.122,222,12.87,12.09,128.1112,0.162,47.95,55.6,32.78,34.65
"2017-05-22 09:10:00",289124,0.579,342.1,19.52,55.4,829.4124,0,868.835,0,-4.296,3.113,240,12.88,12.09,135.0474,0.163,47.95,55.6,32.78,34.65
"2017-05-22 09:20:00",289125,0.681,319.4,19.7,54.86,860.84,0,868.8308,0,-4.416,3.113,203,12.9,12.11,141.423,0.164,47.95,55.6,32.78,34.65
"2017-05-22 09:30:00",289126,0.65,325.6,19.86,54.11,884.0129,0,868.8308,0,-4.025,3.109,200,12.91,12.14,146.3288,0.166,47.95,55.6,32.78,34.65
"2017-05-22 09:40:00",289127,0.497,333.8,20.13,53.95,901.5714,0,868.6834,0,-4.663,3.114,220,12.93,12.11,148.9844,0.165,47.95,55.6,32.78,34.65
"2017-05-22 09:50:00",289128,0.662,359.3,19.97,54.71,910.9223,0,868.5781,0,-5.188,3.12,197,12.96,12.15,150.6664,0.165,47.95,55.6,32.78,34.65
"2017-05-22 10:00:00",289129,0.579,334.7,20.16,54.92,942.3854,0,868.5781,0,-4.551,3.112,213,12.95,12.13,157.6973,0.167,47.89,55.6,32.77,34.65
"2017-05-22 10:10:00",289130,0.54,356.3,20.66,53.94,976.08,0,868.5508,0,-4.311,3.106,190,12.93,12.07,164.4442,0.168,47.95,55.6,32.78,34.65
"2017-05-22 10:20:00",289131,0.506,58.35,21.72,52.07,993.1356,0,868.3698,0,-5.378,3.111,185,12.91,12.05,168.4181,0.17,47.95,55.6,32.78,34.65
"2017-05-22 10:30:00",289132,0.462,38.61,22.22,49.31,998.035,0,868.3255,0,-4.98,3.109,197,13,12.01,170.0433,0.17,47.95,55.6,32.78,34.65
"2017-05-22 10:40:00",289133,0.526,298,21.16,49.64,1014.933,0,868.1529,0,-4.884,3.109,197,13,11.96,172.3238,0.17,47.89,55.6,32.77,34.65
"2017-05-22 10:50:00",289134,0.629,38.95,21.84,48.46,1029.093,0,868.0729,0,-3.286,3.087,198,13.06,11.97,175.3544,0.17,47.95,55.6,32.78,34.65
"2017-05-22 11:00:00",289135,0.534,341.2,22.38,46.42,1034.668,0,868.0729,0,-4.829,3.1,199,13.13,11.97,176.0666,0.17,47.89,55.6,32.77,34.65
"2017-05-22 11:10:00",289136,0.652,328.5,22.78,44.01,1040.275,0,867.9844,0,-3.787,3.095,203,13.15,11.97,178.7638,0.172,47.89,55.6,32.77,34.65
"2017-05-22 11:20:00",289137,0.56,266.7,22.24,44.34,1054.034,0,867.8349,0,-4.335,3.098,197,13.23,11.97,182.4119,0.173,47.89,55.6,32.77,34.65
"2017-05-22 11:30:00",289138,0.917,306.6,21.88,44.32,1055.225,0,867.8076,0,-2.973,3.089,209,13.31,11.97,183.8931,0.174,47.89,55.6,32.77,34.65
"2017-05-22 11:40:00",289139,0.5,293.5,22.52,43.74,1051.736,0,867.7191,0,-3.999,3.095,199,13.42,11.97,185.4425,0.176,47.89,55.55,32.77,34.64
"2017-05-22 11:50:00",289140,0.427,339.7,22.83,43.37,910.3683,0,867.5886,0,-4.166,3.095,216,13.48,11.97,158.3148,0.174,47.89,55.55,32.77,34.64
"2017-05-22 12:00:00",289141,0.784,346.8,22.59,42.11,1059.197,0,867.5969,0,-4.232,3.097,204,13.58,11.95,187.598,0.177,47.89,55.55,32.77,34.64
"2017-05-22 12:10:00",289142,0.729,308.2,22.5,42.42,967.0709,0,867.5346,0,-3.716,3.09,196,13.69,11.94,172.1533,0.173,47.84,55.55,32.76,34.64
"2017-05-22 12:20:00",289143,0.712,22.93,22.99,40.99,1062.371,0,867.3617,0,-2.386,3.077,251,13.8,11.97,189.3255,0.178,47.84,55.55,32.76,34.64
"2017-05-22 12:30:00",289144,0.606,291.8,23.07,41,1005.657,0,867.3144,0,-3.673,3.088,191,13.87,11.96,176.8621,0.173,47.84,55.55,32.76,34.64
"2017-05-22 12:40:00",289145,0.742,314.4,22.85,42.02,940.578,0,867.1884,0,-3.938,3.091,199,13.98,11.97,167.6074,0.174,47.79,55.55,32.74,34.64
"2017-05-22 12:50:00",289146,0.585,116.5,23.82,41.81,905.913,0,867.0641,0,-4.24,3.088,212,14.09,11.97,160.8643,0.174,47.84,55.55,32.76,34.64
"2017-05-22 13:00:00",289147,0.827,114.7,23.75,39.79,1061.656,0,867.0494,0,-5.307,3.098,203,14.19,11.97,188.9732,0.178,47.84,55.55,32.76,34.64
"2017-05-22 13:10:00",289148,0.58,62.2,24.36,38.97,1038.601,0,866.8136,0,-4.392,3.089,192,14.3,11.92,185.094,0.178,47.79,55.55,32.74,34.64
"2017-05-22 13:20:00",289149,0.531,258,23.93,39.43,865.1501,0,866.8052,0,-3.385,3.078,228,14.4,11.9,150.655,0.168,47.73,55.55,32.73,34.64
"2017-05-22 13:30:00",289150,0.574,64,24.06,37.86,761.2373,0,866.782,0,-3.22,3.078,194,14.49,11.91,134.8504,0.168,47.73,55.49,32.73,34.63
"2017-05-22 13:40:00",289151,0.422,26.51,24.73,36.23,939.2775,0,866.5609,0,-5.056,3.094,193,14.6,11.88,168.5128,0.178,47.73,55.49,32.73,34.63
"2017-05-22 13:50:00",289152,0.555,110.1,24.92,35.68,938.9043,0,866.4957,0,-3.701,3.079,198,14.7,11.85,165.3875,0.176,47.73,55.49,32.73,34.63
"2017-05-22 14:00:00",289153,0.382,224.4,24.91,35.3,837.6553,0,866.3125,0,-4.209,3.085,202,14.79,11.89,143.802,0.169,47.73,55.49,32.73,34.63
"2017-05-22 14:10:00",289154,0.3,155.7,24.66,36.96,696.838,0,866.304,0,-4.513,3.087,200,14.88,11.89,115.1326,0.152,47.68,55.49,32.71,34.63
"2017-05-22 14:20:00",289155,0.46,159.3,24.98,35.31,846.028,0,866.2556,0,-2.933,3.073,210,14.99,11.93,140.726,0.166,47.68,55.49,32.71,34.63
"2017-05-22 14:30:00",289156,0.444,260.4,24.8,36.3,804.2161,0,866.0556,0,-3.525,3.078,198,15.09,11.96,126.3534,0.157,47.68,55.49,32.71,34.63
"2017-05-22 14:40:00",289157,0.52,68.42,24.81,35.73,769.5078,0,866.0514,0,-3.718,3.083,191,15.14,11.98,111.2003,0.144,47.62,55.49,32.7,34.63
"2017-05-22 14:50:00",289158,0.655,71.55,24.1,37.06,732.9371,0,866.0493,0,-4.283,3.09,195,15.25,11.98,89.80809,0.122,47.62,55.49,32.7,34.63
"2017-05-22 15:00:00",289159,0.555,173.9,23.98,38.01,723.3191,0,866.0514,0,-4.098,3.088,192,15.33,11.97,69.23409,0.096,47.62,55.49,32.7,34.63
"2017-05-22 15:10:00",289160,0.389,357.2,23.8,38.57,423.6937,0,866.0514,0,-4.118,3.09,191,15.43,11.99,40.74265,0.117,47.62,55.49,32.7,34.63
"2017-05-22 15:20:00",289161,0.49,122.9,23.47,39.83,236.609,0,866.1777,0,-4.625,3.096,186,15.5,12.04,35.73837,0.158,47.62,55.43,32.7,34.61
"2017-05-22 15:30:00",289162,0.315,48.09,23.33,40.52,167.4556,0,866.304,0,-2.874,3.081,196,15.6,12.04,30.44239,0.182,47.62,55.49,32.7,34.63
"2017-05-22 15:40:00",289163,0.562,95.4,22.89,41.53,139.3754,0,866.304,0,-3.494,3.089,195,15.69,12.06,24.65773,0.177,47.57,55.43,32.69,34.61
"2017-05-22 15:50:00",289164,0.325,175.1,22.63,42.65,128.0444,0,866.304,0,-4.51,3.099,185,15.77,12.06,22.57419,0.176,47.57,55.43,32.69,34.61
"2017-05-22 16:00:00",289165,0.254,206.2,22.55,43.09,109.2051,0,866.304,0,-3.016,3.086,194,15.86,12.06,18.77458,0.172,47.52,55.43,32.67,34.61
"2017-05-22 16:10:00",289166,0.573,57.59,22.36,43.37,103.0563,0,866.304,0,-4.841,3.104,188,15.87,12.08,17.27064,0.168,47.52,55.43,32.67,34.61
"2017-05-22 16:20:00",289167,0.391,155.3,22.15,44.41,104.3567,0,866.304,0,-3.852,3.097,185,15.97,12.12,15.61518,0.151,47.52,55.43,32.67,34.61
"2017-05-22 16:30:00",289168,0.395,53,21.85,45.11,99.5134,0,866.304,0,-4.765,3.106,185,15.98,12.17,14.3311,0.145,47.46,55.43,32.66,34.61
"2017-05-22 16:40:00",289169,0.306,147.1,21.49,46.67,99.6273,0,866.3483,0,-4.838,3.109,188,16.1,12.2,12.29679,0.124,47.46,55.43,32.66,34.61
"2017-05-22 16:50:00",289170,0.17,193.6,21.37,47.78,96.61317,0,866.5546,0,-5.172,3.112,199,16.14,12.22,13.15665,0.136,47.46,55.37,32.66,34.6
"2017-05-22 17:00:00",289171,0.302,154.2,21.19,49.18,106.1532,0,866.5567,0,-4.752,3.11,196,16.12,12.2,15.03948,0.141,47.46,55.37,32.66,34.6
"2017-05-22 17:10:00",289172,0.282,137.8,20.89,51.13,93.65317,0,866.5652,0,-3.784,3.102,206,16.21,12.23,12.05079,0.129,47.46,55.43,32.66,34.61
"2017-05-22 17:20:00",289173,0.183,131.6,20.75,52.12,84.50942,0,866.7294,0,-4.005,3.105,219,16.25,12.33,11.00182,0.13,47.41,55.43,32.65,34.61
"2017-05-22 17:30:00",289174,0.304,105.2,20.43,53.67,82.22813,0,866.8094,0,-2.802,3.095,254,16.25,12.35,11.38089,0.139,47.46,55.43,32.66,34.61
"2017-05-22 17:40:00",289175,0.242,104.7,20.23,54.88,59.16225,0,866.8136,0,-3.357,3.102,244,16.25,12.34,7.933154,0.131,47.41,55.37,32.65,34.6
"2017-05-22 17:50:00",289176,0.099,109.8,19.72,56.87,47.43828,0,866.9063,0,-3.022,3.101,239,16.26,12.39,5.800323,0.121,47.41,55.43,32.65,34.61
"2017-05-22 18:00:00",289177,0.059,187.6,19.47,59.01,51.17609,0,867.0621,0,-3.039,3.103,214,16.32,12.44,6.872625,0.134,47.41,55.43,32.65,34.61
"2017-05-22 18:10:00",289178,0.108,83.9,19.13,60.18,38.0918,0,867.0473,0,-1.083,3.085,418,16.34,12.5,4.913956,0.128,47.41,55.37,32.65,34.6
"2017-05-22 18:20:00",289179,0.015,118.9,18.8,61.29,19.73306,0,867.0621,0,-2.653,3.103,220,16.3,12.48,1.742766,0.085,47.41,55.37,32.65,34.6
"2017-05-22 18:30:00",289180,0,0,18.31,62.73,8.837018,0,867.201,0,-2.89,3.108,221,16.2,12.48,0.2386801,0.021,47.36,55.37,32.63,34.6
"2017-05-22 18:40:00",289181,0.156,45.53,17.85,64.25,3.426512,0,867.2979,0,-4.098,3.122,199,16.23,12.58,0,0,47.41,55.37,32.65,34.6
"2017-05-22 18:50:00",289182,0.171,58.4,17.34,65.74,0.7898594,0,867.3146,0,-3.913,3.122,198,16.26,12.61,0,0,47.36,55.37,32.63,34.6
"2017-05-22 19:00:00",289183,0.01,285.4,17.06,66.83,0,0,867.4221,0,-5.166,3.136,197,16.19,12.63,0,0,47.36,55.32,32.63,34.59
"2017-05-22 19:10:00",289184,0.086,337.6,16.83,67.1,0,0,867.5651,0,-4.924,3.135,176,16.19,12.66,0,0,47.36,55.37,32.63,34.6
"2017-05-22 19:20:00",289185,0.084,44.4,16.47,68.99,0,0,867.6947,0,-4.788,3.136,185,16.21,12.72,0,0,47.36,55.37,32.63,34.6
"2017-05-22 19:30:00",289186,0.045,202.8,16.28,70.24,0,0,867.8241,0,-5.053,3.139,187,16.17,12.71,0,0,47.36,55.32,32.63,34.59
"2017-05-22 19:40:00",289187,0,0,16.03,71.75,0,0,867.8229,0,-4.958,3.139,196,16.16,12.7,0,0,47.3,55.32,32.62,34.59
"2017-05-22 19:50:00",289188,0,0,16.06,71.43,0,0,867.8419,0,-5.109,3.14,190,16.15,12.75,0.1743175,0,47.3,55.32,32.62,34.59
"2017-05-22 20:00:00",289189,0.045,294,16.09,70.25,0,0,867.9754,0,-5.291,3.142,192,16.15,12.83,0.2349486,0,47.3,55.32,32.62,34.59
"2017-05-22 20:10:00",289190,0.008,133.7,15.96,70.67,0,0,868.095,0,-5.449,3.144,198,16.05,12.81,0.1440017,0,47.3,55.32,32.62,34.59
"2017-05-22 20:20:00",289191,0.027,73.43,15.72,72.04,0,0,868.1164,0,-5.28,3.144,197,16.03,12.8,0.06442205,0,47.3,55.32,32.62,34.59
"2017-05-22 20:30:00",289192,0.043,157.6,15.54,73.57,0,0,868.3439,0,-4.934,3.143,238,15.98,12.83,0.06442215,0,47.3,55.32,32.62,34.59
"2017-05-22 20:40:00",289193,0.226,122.3,15.12,75.51,0,0,868.3871,0,-4.939,3.144,238,15.98,12.89,0,0,47.3,55.32,32.62,34.59
"2017-05-22 20:50:00",289194,0.088,126.2,14.89,77.2,0,0,868.4667,0,-4.999,3.146,246,15.89,12.93,0,0,47.3,55.26,32.62,34.57
"2017-05-22 21:00:00",289195,0.057,5.524,14.94,75.78,0,0,868.6552,0,-4.474,3.139,297,15.86,12.93,0.2235829,0,47.25,55.32,32.61,34.59
"2017-05-22 21:10:00",289196,0,0,14.98,75.26,0,0,868.6602,0,-5.512,3.151,245,15.83,12.91,0.2008457,0,47.25,55.26,32.61,34.57
"2017-05-22 21:20:00",289197,0.122,171.6,14.36,79.29,0,0,868.649,0,-5.043,3.15,225,15.81,12.93,0.003789541,0,47.3,55.26,32.62,34.57
"2017-05-22 21:30:00",289198,0.111,172.1,13.96,81.9,0,0,868.5265,0,-6.566,3.167,196,15.75,12.94,0,0,47.3,55.26,32.62,34.57
"2017-05-22 21:40:00",289199,0.145,185.8,13.67,83.7,0,0,868.4736,0,-6.414,3.166,200,15.72,12.98,0,0,47.25,55.26,32.61,34.57
"2017-05-22 21:50:00",289200,0.029,196.5,13.59,84.4,0,0,868.4163,0,-5.808,3.162,205,15.69,13.02,0,0,47.25,55.26,32.61,34.57
"2017-05-22 22:00:00",289201,0.149,195.5,13.22,89.5,0,0,868.4173,0,-6.578,3.17,195,15.63,13.02,0,0,47.3,55.26,32.62,34.57
"2017-05-22 22:10:00",289202,0.278,191.7,12.91,93.8,0,0,868.2891,0,-5.158,3.159,201,15.62,13.02,0,0,47.3,55.26,32.62,34.57
"2017-05-22 22:20:00",289203,0.337,188.3,12.65,99.4,0,0,868.0679,0,-5.596,3.164,201,15.54,13.02,0,0,47.3,55.26,32.62,34.57
"2017-05-22 22:30:00",289204,0.117,190.7,12.76,99.4,0,0,867.9142,0,-4.413,3.151,217,15.56,13.02,0.322111,0,47.3,55.2,32.62,34.56
"2017-05-22 22:40:00",289205,0.149,31.36,13.11,94.5,0,0,867.9121,0,-4.345,3.147,222,15.5,13.01,1.015597,0,47.3,55.2,32.62,34.56
"2017-05-22 22:50:00",289206,0.012,110.2,13.11,91.1,0,0,867.9121,0,-3.979,3.147,216,15.45,12.99,0.3524273,0,47.25,55.2,32.61,34.56
"2017-05-22 23:00:00",289207,0.236,172.4,12.4,98.9,0,0,867.8026,0,-4.323,3.153,200,15.38,13.02,0,0,47.25,55.2,32.61,34.56
"2017-05-22 23:10:00",289208,0.188,174.6,12.28,100,0,0,867.6614,0,-4.091,3.15,215,15.38,13.09,0.07958036,0,47.25,55.2,32.61,34.56
"2017-05-22 23:20:00",289209,0.028,140.5,12.9,92.2,0,0,867.6614,0,-4.442,3.152,200,15.32,13.14,1.011807,0,47.25,55.2,32.61,34.56
"2017-05-22 23:30:00",289210,0.057,188,12.53,97.1,0,0,867.7309,0,-4.081,3.148,218,15.29,13.15,0.2766365,0,47.25,55.2,32.61,34.56
"2017-05-22 23:40:00",289211,0.035,297.7,13.03,90.4,0,0,867.7057,0,-4.495,3.153,200,15.19,13.15,0.9132794,0,47.25,55.2,32.61,34.56
"2017-05-22 23:50:00",289212,0.007,225.2,12.39,99.2,0,0,867.653,0,-4.144,3.151,200,15.23,13.15,0.140213,0,47.3,55.2,32.62,34.56
